Weather Service Report


876 
ASUS42 KRAH 040910
RWRRAH
NORTH CAROLINA WEATHER ROUNDUP
NATIONAL WEATHER SERVICE RALEIGH NC
500 AM EDT TUE AUG 04 2015

NOTE: "FAIR" INDICATES FEW OR NO CLOUDS BELOW 12,000 FEET WITH NO
SIGNIFICANT WEATHER AND/OR OBSTRUCTIONS TO VISIBILITY.

NCZ001-053-055-056-065-067-041000-
WESTERN NORTH CAROLINA
  
CITY           SKY/WX    TMP DP  RH WIND       PRES   REMARKS
ASHEVILLE      CLEAR     63  59  87 N6        30.07R                  
JEFFERSON      CLOUDY    69  54  57 NW6       30.09S                  
MORGANTON      PTCLDY    63  62  97 CALM      30.04R                  
HICKORY        PTCLDY    70  64  81 CALM      29.99R                  
RUTHERFORDTON  CLEAR     67  64  90 CALM      29.99S                  
MOUNT AIRY     CLEAR     68  64  85 CALM      30.00F                  
BOONE          CLOUDY    57  55  95 CALM      30.11S                  
$$
 
NCZ021-022-025-041-071-084-088-041000-
CENTRAL NORTH CAROLINA
  
CITY           SKY/WX    TMP DP  RH WIND       PRES   REMARKS
CHARLOTTE      PTCLDY    71  68  90 CALM      29.98R                  
GREENSBORO     PTCLDY    72  69  90 SW5       29.97S                  
WINSTON-SALEM  CLEAR     74  68  81 CALM      29.98F                  
RALEIGH-DURHAM PTCLDY    74  71  91 SW6       29.98R                  
FORT BRAGG     CLEAR     75  72  91 CALM      29.95S                  
FAYETTEVILLE   CLEAR     74  72  93 CALM      29.94F                  
BURLINGTON     PTCLDY    71  68  90 SE3       29.98R                  
LAURINBURG     CLEAR     74  71  91 CALM      29.95F                  
$$
 
NCZ011-015-027-028-043-044-047-080-103-041000-
NORTHEASTERN NORTH CAROLINA
  
CITY           SKY/WX    TMP DP  RH WIND       PRES   REMARKS
ROCKY MT-WILSO CLEAR     74  72  93 S5        29.97R                  
GREENVILLE     CLOUDY    77  75  94 SW8       29.99R                  
WASHINGTON     CLOUDY    76  75  96 NW3       29.98R                  
ELIZABETH CITY MOCLDY    79  76  90 SW14G22   29.96R                  
MANTEO         MOCLDY    79  77  93 SW15      29.98R                  
CAPE HATTERAS  CLOUDY    79  75  87 SW10      29.99R                  
$$
 
NCZ078-087-090-091-093-098-101-041000-
SOUTHEASTERN NORTH CAROLINA
  
CITY           SKY/WX    TMP DP  RH WIND       PRES   REMARKS
LUMBERTON      PTCLDY    76  72  87 SE5       29.93F                  
GOLDSBORO      MOCLDY    75  75  98 E2        29.95R                  
KINSTON        CLEAR     77  76  95 S8        29.98R                  
KENANSVILLE    PTCLDY   N/A N/A N/A CALM      29.98F                  
NEW BERN       MOCLDY    79  76  90 S5        29.99R                  
CHERRY POINT   PTCLDY    78  76  93 S3        29.99S                  
BEAUFORT       PTCLDY    80  78  94 S9        29.98S                  
JACKSONVILLE   CLEAR     79  75  87 S5        29.97S                  
WILMINGTON     MOCLDY    80  76  87 S6        29.95F                  
$$


Return to Home page


Western Regional Climate Center, wrcc@dri.edu